This is the latest recevied weather packets stored in our database for station/object SV2BZQ-2. If no packets are shown the sender has not sent any weather packets the latest 1 day(s).
| Time | Temp. | Humidity | Pressure | Rain* | Wind** | Luminosity | Snow |
|---|---|---|---|---|---|---|---|
| 1778045855 | 13.33° C | 87% | 1014.3 hPa | 0 mm | 0.45 m/s, 293° | 294 W/m² | - |
| 1778045706 | 13.33° C | 87% | 1014.3 hPa | 0 mm | 0.45 m/s, 292° | 278 W/m² | - |
| 1778045570 | 13.33° C | 87% | 1014.3 hPa | 0 mm | 0.45 m/s, 294° | 227 W/m² | - |
| 1778045455 | 13.33° C | 87% | 1014.2 hPa | 0 mm | 0.45 m/s, 303° | 257 W/m² | - |
| 1778045309 | 13.33° C | 88% | 1014.3 hPa | 0 mm | 0.45 m/s, 313° | 156 W/m² | - |
| 1778045226 | 13.33° C | 88% | 1014.3 hPa | 0 mm | 0.45 m/s, 317° | 151 W/m² | - |
| 1778045112 | 13.33° C | 88% | 1014.3 hPa | 0 mm | 0.89 m/s, 329° | 118 W/m² | - |
| 1778044873 | 13.33° C | 88% | 1014.3 hPa | 0 mm | 0.89 m/s, 304° | 234 W/m² | - |
| 1778044743 | 12.78° C | 88% | 1014.4 hPa | 0 mm | 0.45 m/s, 317° | 197 W/m² | - |
| 1778044618 | 12.78° C | 88% | 1014.4 hPa | 0 mm | 0.45 m/s, 286° | 246 W/m² | - |
| 1778044503 | 12.78° C | 88% | 1014.4 hPa | 0 mm | 0.45 m/s, 286° | 274 W/m² | - |
| 1778044393 | 12.78° C | 88% | 1014.5 hPa | 0 mm | 0.89 m/s, 277° | 276 W/m² | - |
| 1778044299 | 12.78° C | 88% | 1014.4 hPa | 0 mm | 0.45 m/s, 284° | 258 W/m² | - |
| 1778044203 | 12.78° C | 89% | 1014.4 hPa | 0 mm | 0.45 m/s, 284° | 250 W/m² | - |
| 1778044087 | 12.78° C | 89% | 1014.4 hPa | 0 mm | 0.45 m/s, 299° | 216 W/m² | - |
| 1778043997 | 12.78° C | 89% | 1014.3 hPa | 0 mm | 0.45 m/s, 327° | 207 W/m² | - |
| 1778043886 | 12.22° C | 89% | 1014.4 hPa | 0 mm | 0.45 m/s, 304° | 169 W/m² | - |
| 1778043604 | 12.22° C | 89% | 1014.3 hPa | 0 mm | 0.45 m/s, 303° | 149 W/m² | - |
| 1778043484 | 12.22° C | 89% | 1014.3 hPa | 0 mm | 0.45 m/s, 304° | 169 W/m² | - |
| 1778043351 | 12.22° C | 89% | 1014.3 hPa | 0 mm | 0.45 m/s, 312° | 204 W/m² | - |
| 1778043232 | 12.22° C | 89% | 1014.3 hPa | 0 mm | 0.89 m/s, 308° | 216 W/m² | - |
| 1778043112 | 12.22° C | 89% | 1014.2 hPa | 0 mm | 0.89 m/s, 321° | 229 W/m² | - |
| 1778042990 | 11.67° C | 89% | 1014.3 hPa | 0 mm | 0.89 m/s, 323° | 223 W/m² | - |
| 1778042881 | 11.67° C | 89% | 1014.3 hPa | 0 mm | 0.89 m/s, 319° | 223 W/m² | - |
| 1778042788 | 11.67° C | 89% | 1014.2 hPa | 0 mm | 0.89 m/s, 324° | 220 W/m² | - |
* Rain latest hour (hover to see other rain measurements)
** Current wind speed in m/s (hover to see current wind gust speed)